Precipitable_Water
0.30 0.30 0.29 0.26 0.25 0.23 0.21 0.20 0.20 0.20 0.19 0.19 0.19 0.18 0.17 0.18 0.19 0.20 0.20 0.21 0.22 0.22 0.20 0.21 0.24 0.26 0.26 0.24 0.24 0.25 0.27 0.28 0.28 0.28 0.30 0.30 0.31 0.31 0.34 0.35 0.38 0.43 0.51 0.57 0.60 0.63 0.65 0.68 0.69 0.71 0.74 0.75
0.27 0.26 0.25 0.23 0.21 0.20 0.18 0.17 0.17 0.17 0.17 0.17 0.16 0.16 0.15 0.15 0.16 0.17 0.17 0.18 0.19 0.19 0.19 0.18 0.21 0.24 0.24 0.22 0.21 0.21 0.22 0.23 0.23 0.23 0.23 0.23 0.23 0.23 0.24 0.25 0.27 0.31 0.35 0.41 0.46 0.51 0.55 0.58 0.61 0.64 0.68 0.71
0.23 0.22 0.21 0.20 0.18 0.17 0.16 0.15 0.15 0.15 0.16 0.15 0.15 0.14 0.14 0.13 0.13 0.14 0.15 0.14 0.16 0.17 0.17 0.17 0.17 0.21 0.23 0.22 0.19 0.19 0.20 0.21 0.20 0.20 0.20 0.20 0.18 0.19 0.18 0.18 0.18 0.21 0.24 0.29 0.32 0.37 0.41 0.46 0.49 0.52 0.57 0.61
0.18 0.18 0.18 0.16 0.15 0.15 0.15 0.14 0.14 0.13 0.13 0.14 0.13 0.13 0.12 0.12 0.11 0.12 0.12 0.13 0.12 0.14 0.14 0.15 0.15 0.17 0.20 0.20 0.18 0.17 0.17 0.19 0.19 0.19 0.18 0.18 0.17 0.16 0.15 0.15 0.14 0.15 0.17 0.19 0.22 0.25 0.28 0.32 0.36 0.41 0.44 0.46
0.16 0.15 0.12 0.13 0.14 0.14 0.14 0.13 0.13 0.12 0.12 0.12 0.12 0.11 0.11 0.11 0.11 0.11 0.11 0.11 0.11 0.12 0.13 0.14 0.14 0.14 0.16 0.18 0.16 0.15 0.15 0.16 0.16 0.16 0.16 0.16 0.15 0.15 0.14 0.13 0.12 0.13 0.14 0.14 0.15 0.17 0.18 0.20 0.23 0.28 0.32 0.35
0.14 0.13 0.13 0.12 0.13 0.13 0.13 0.13 0.12 0.12 0.11 0.12 0.11 0.11 0.11 0.11 0.11 0.11 0.12 0.12 0.12 0.12 0.12 0.13 0.13 0.13 0.14 0.15 0.15 0.13 0.13 0.13 0.14 0.14 0.14 0.15 0.14 0.13 0.13 0.12 0.11 0.11 0.12 0.12 0.13 0.13 0.13 0.12 0.15 0.18 0.21 0.25
0.13 0.13 0.13 0.12 0.12 0.12 0.13 0.13 0.12 0.12 0.12 0.11 0.11 0.11 0.11 0.11 0.11 0.11 0.11 0.12 0.12 0.11 0.12 0.12 0.12 0.12 0.12 0.12 0.13 0.12 0.11 0.11 0.12 0.11 0.12 0.12 0.12 0.11 0.11 0.10 0.11 0.11 0.11 0.11 0.11 0.11 0.10 0.10 0.11 0.12 0.13 0.16
0.13 0.13 0.13 0.13 0.13 0.12 0.12 0.12 0.12 0.12 0.12 0.12 0.12 0.12 0.11 0.11 0.11 0.11 0.11 0.11 0.11 0.11 0.11 0.10 0.11 0.11 0.10 0.10 0.11 0.11 0.09 0.09 0.10 0.10 0.09 0.10 0.10 0.09 0.10 0.10 0.10 0.11 0.11 0.11 0.11 0.10 0.10 0.09 0.10 0.10 0.11 0.12
0.13 0.13 0.13 0.13 0.13 0.13 0.13 0.12 0.12 0.12 0.12 0.12 0.12 0.12 0.12 0.12 0.11 0.11 0.11 0.11 0.11 0.11 0.10 0.10 0.10 0.10 0.10 0.10 0.10 0.11 0.09 0.09 0.09 0.09 0.08 0.08 0.08 0.09 0.09 0.09 0.09 0.10 0.10 0.11 0.10 0.10 0.09 0.09 0.09 0.09 0.10 0.11
0.14 0.13 0.13 0.13 0.13 0.13 0.13 0.12 0.12 0.12 0.12 0.12 0.13 0.13 0.12 0.12 0.12 0.11 0.11 0.11 0.11 0.11 0.11 0.10 0.10 0.10 0.10 0.10 0.10 0.10 0.09 0.09 0.09 0.08 0.08 0.08 0.08 0.09 0.09 0.09 0.09 0.10 0.10 0.10 0.10 0.10 0.09 0.09 0.09 0.09 0.09 0.10
0.13 0.13 0.13 0.14 0.14 0.13 0.12 0.13 0.12 0.12 0.12 0.13 0.13 0.13 0.13 0.12 0.12 0.12 0.11 0.11 0.11 0.11 0.11 0.10 0.10 0.10 0.10 0.10 0.10 0.10 0.10 0.09 0.09 0.09 0.08 0.08 0.08 0.09 0.09 0.09 0.09 0.10 0.10 0.10 0.09 0.09 0.08 0.08 0.08 0.08 0.09 0.09
0.12 0.13 0.13 0.14 0.14 0.14 0.14 0.13 0.12 0.12 0.13 0.13 0.13 0.13 0.13 0.13 0.12 0.12 0.12 0.12 0.11 0.11 0.11 0.11 0.11 0.11 0.10 0.10 0.10 0.11 0.10 0.09 0.09 0.09 0.08 0.08 0.08 0.08 0.08 0.08 0.08 0.09 0.10 0.10 0.10 0.09 0.08 0.08 0.08 0.08 0.09 0.09
0.12 0.12 0.12 0.13 0.13 0.13 0.14 0.13 0.13 0.13 0.13 0.13 0.13 0.13 0.14 0.13 0.12 0.12 0.12 0.12 0.12 0.12 0.11 0.11 0.11 0.11 0.10 0.10 0.10 0.11 0.10 0.10 0.09 0.09 0.09 0.08 0.08 0.08 0.08 0.08 0.08 0.09 0.09 0.10 0.10 0.09 0.08 0.07 0.07 0.08 0.08 0.09
0.12 0.12 0.11 0.12 0.12 0.13 0.14 0.13 0.13 0.14 0.13 0.13 0.13 0.13 0.14 0.14 0.13 0.13 0.12 0.12 0.12 0.12 0.11 0.11 0.11 0.11 0.11 0.11 0.11 0.11 0.10 0.11 0.10 0.09 0.09 0.09 0.09 0.08 0.08 0.08 0.08 0.08 0.08 0.09 0.09 0.09 0.08 0.08 0.08 0.08 0.08 0.09
0.12 0.12 0.12 0.12 0.12 0.13 0.13 0.14 0.14 0.14 0.14 0.14 0.14 0.14 0.14 0.14 0.14 0.13 0.13 0.13 0.13 0.12 0.12 0.11 0.11 0.11 0.11 0.11 0.11 0.11 0.11 0.11 0.11 0.10 0.10 0.09 0.09 0.09 0.09 0.08 0.08 0.08 0.08 0.08 0.08 0.08 0.08 0.08 0.08 0.08 0.09 0.09
0.13 0.12 0.12 0.12 0.12 0.12 0.13 0.14 0.14 0.14 0.14 0.14 0.14 0.14 0.14 0.14 0.14 0.14 0.13 0.13 0.13 0.12 0.12 0.12 0.11 0.11 0.11 0.11 0.12 0.12 0.12 0.11 0.11 0.11 0.11 0.10 0.10 0.10 0.09 0.09 0.09 0.09 0.08 0.08 0.08 0.08 0.08 0.08 0.08 0.08 0.09 0.09
0.13 0.13 0.13 0.13 0.13 0.13 0.14 0.14 0.14 0.14 0.14 0.14 0.14 0.15 0.14 0.14 0.14 0.14 0.13 0.13 0.13 0.13 0.12 0.12 0.12 0.12 0.12 0.12 0.12 0.12 0.12 0.12 0.12 0.11 0.11 0.10 0.11 0.10 0.10 0.09 0.09 0.09 0.09 0.09 0.09 0.09 0.08 0.08 0.08 0.09 0.09 0.09
0.14 0.14 0.14 0.14 0.14 0.14 0.14 0.14 0.14 0.14 0.14 0.15 0.15 0.15 0.15 0.14 0.14 0.14 0.14 0.13 0.13 0.13 0.12 0.12 0.12 0.12 0.12 0.12 0.13 0.12 0.12 0.12 0.12 0.11 0.11 0.11 0.10 0.10 0.10 0.09 0.09 0.09 0.09 0.09 0.09 0.09 0.09 0.09 0.09 0.09 0.09 0.09
0.14 0.15 0.15 0.15 0.15 0.15 0.14 0.15 0.14 0.15 0.15 0.15 0.15 0.15 0.14 0.14 0.14 0.14 0.14 0.14 0.13 0.13 0.13 0.12 0.12 0.12 0.12 0.13 0.13 0.12 0.13 0.12 0.12 0.12 0.11 0.11 0.10 0.10 0.10 0.10 0.10 0.10 0.09 0.09 0.09 0.09 0.09 0.09 0.09 0.09 0.08 0.10
0.15 0.15 0.15 0.15 0.15 0.15 0.15 0.15 0.15 0.15 0.15 0.15 0.15 0.15 0.15 0.15 0.14 0.15 0.14 0.14 0.14 0.13 0.13 0.13 0.12 0.13 0.13 0.13 0.13 0.13 0.13 0.13 0.12 0.12 0.12 0.12 0.11 0.10 0.10 0.10 0.10 0.10 0.10 0.10 0.10 0.10 0.09 0.09 0.09 0.08 0.08 0.10
0.16 0.16 0.15 0.16 0.16 0.16 0.16 0.16 0.15 0.15 0.16 0.15 0.15 0.15 0.15 0.15 0.15 0.15 0.15 0.15 0.15 0.14 0.14 0.13 0.13 0.13 0.13 0.14 0.13 0.13 0.13 0.12 0.13 0.12 0.12 0.12 0.12 0.12 0.11 0.10 0.10 0.10 0.10 0.10 0.10 0.10 0.10 0.10 0.09 0.08 0.08 0.10
0.16 0.16 0.16 0.16 0.16 0.17 0.17 0.16 0.16 0.16 0.16 0.15 0.15 0.16 0.15 0.15 0.15 0.15 0.15 0.15 0.15 0.15 0.15 0.14 0.14 0.14 0.14 0.14 0.14 0.13 0.13 0.13 0.13 0.13 0.13 0.12 0.12 0.12 0.11 0.11 0.10 0.10 0.11 0.11 0.11 0.10 0.10 0.10 0.09 0.09 0.09 0.11
0.16 0.16 0.16 0.17 0.17 0.17 0.17 0.17 0.17 0.17 0.16 0.16 0.16 0.16 0.16 0.16 0.16 0.16 0.16 0.16 0.16 0.15 0.15 0.15 0.15 0.14 0.14 0.14 0.14 0.13 0.13 0.13 0.13 0.13 0.13 0.12 0.12 0.13 0.13 0.12 0.11 0.11 0.12 0.11 0.11 0.10 0.10 0.10 0.10 0.10 0.10 0.13
0.16 0.16 0.16 0.16 0.16 0.16 0.16 0.17 0.17 0.17 0.17 0.17 0.16 0.17 0.17 0.17 0.17 0.17 0.17 0.16 0.16 0.16 0.16 0.15 0.15 0.14 0.15 0.15 0.14 0.13 0.13 0.13 0.13 0.13 0.13 0.12 0.12 0.12 0.12 0.13 0.12 0.12 0.12 0.11 0.11 0.10 0.10 0.10 0.10 0.10 0.11 0.14
0.15 0.15 0.15 0.16 0.16 0.15 0.16 0.16 0.17 0.17 0.17 0.17 0.18 0.18 0.18 0.18 0.18 0.18 0.17 0.17 0.17 0.16 0.16 0.16 0.15 0.15 0.15 0.15 0.14 0.14 0.13 0.14 0.13 0.14 0.14 0.13 0.13 0.12 0.12 0.12 0.13 0.13 0.13 0.11 0.10 0.10 0.10 0.10 0.11 0.11 0.12 0.15
0.16 0.16 0.16 0.16 0.16 0.16 0.16 0.17 0.17 0.17 0.18 0.18 0.19 0.19 0.19 0.19 0.19 0.18 0.18 0.18 0.18 0.17 0.17 0.16 0.16 0.15 0.15 0.15 0.15 0.14 0.14 0.14 0.14 0.14 0.14 0.14 0.13 0.14 0.12 0.12 0.13 0.13 0.12 0.10 0.10 0.09 0.08 0.09 0.11 0.12 0.13 0.14
0.16 0.17 0.17 0.17 0.16 0.17 0.17 0.18 0.18 0.18 0.19 0.19 0.19 0.19 0.19 0.19 0.19 0.19 0.19 0.18 0.19 0.18 0.18 0.17 0.17 0.16 0.16 0.15 0.15 0.15 0.14 0.14 0.13 0.14 0.13 0.13 0.13 0.12 0.13 0.13 0.14 0.14 0.13 0.11 0.11 0.11 0.10 0.08 0.08 0.10 0.12 0.13
0.17 0.17 0.18 0.18 0.18 0.18 0.18 0.17 0.19 0.19 0.19 0.19 0.19 0.19 0.20 0.20 0.20 0.20 0.19 0.19 0.19 0.19 0.18 0.18 0.18 0.17 0.17 0.16 0.16 0.15 0.15 0.14 0.14 0.14 0.14 0.13 0.13 0.13 0.11 0.12 0.12 0.15 0.14 0.13 0.12 0.09 0.09 0.09 0.09 0.07 0.09 0.09
0.18 0.18 0.18 0.18 0.18 0.19 0.18 0.19 0.18 0.18 0.18 0.19 0.19 0.20 0.20 0.20 0.20 0.20 0.20 0.20 0.20 0.20 0.19 0.19 0.19 0.18 0.18 0.17 0.17 0.17 0.16 0.15 0.15 0.15 0.15 0.14 0.14 0.13 0.12 0.12 0.13 0.14 0.15 0.14 0.14 0.12 0.10 0.09 0.08 0.08 0.09 0.09
0.18 0.18 0.17 0.17 0.17 0.16 0.16 0.16 0.16 0.16 0.16 0.17 0.18 0.18 0.20 0.21 0.21 0.21 0.20 0.20 0.20 0.20 0.20 0.20 0.20 0.19 0.19 0.18 0.18 0.17 0.17 0.16 0.16 0.16 0.15 0.15 0.15 0.14 0.14 0.13 0.13 0.12 0.14 0.15 0.15 0.14 0.13 0.12 0.09 0.09 0.10 0.10
0.18 0.18 0.18 0.17 0.17 0.17 0.16 0.16 0.16 0.18 0.18 0.19 0.19 0.20 0.20 0.20 0.21 0.21 0.21 0.21 0.21 0.21 0.21 0.20 0.20 0.20 0.20 0.19 0.19 0.18 0.18 0.17 0.17 0.17 0.16 0.16 0.16 0.15 0.15 0.15 0.13 0.13 0.13 0.14 0.15 0.15 0.15 0.14 0.14 0.13 0.11 0.09
Wind_Speed
18 18 18 19 19 19 18 18 18 18 18 18 19 19 19 20 20 20 21 21 22 22 23 23 24 24 25 25 26 26 27 27 28 28 29 29 30 30 31 31 32 32 32 32 33 33 33 33 33 33 33 33
19 19 19 19 19 18 18 18 18 19 19 19 19 20 20 21 21 21 22 22 23 23 24 24 25 25 25 26 26 27 27 28 28 29 29 30 30 31 32 32 33 33 33 34 34 34 34 34 34 34 34 34
19 19 19 19 18 18 18 19 19 19 19 20 20 21 21 22 22 23 23 23 24 24 25 25 26 26 26 27 27 28 28 28 29 29 30 30 31 31 32 32 33 33 34 34 35 35 36 36 36 36 36 36
19 19 19 19 19 19 19 19 19 20 20 20 21 22 22 23 23 24 24 24 25 25 25 26 26 27 27 27 28 28 29 29 29 30 30 31 31 32 32 33 33 34 34 35 35 35 36 37 37 37 37 37
20 19 19 19 19 19 19 19 20 20 21 21 22 22 23 23 24 24 25 25 25 26 26 26 27 27 27 28 28 29 29 30 30 30 31 31 32 32 33 33 34 34 34 35 35 36 36 37 37 37 38 38
20 19 19 19 19 19 20 20 20 21 21 22 22 23 23 24 24 25 25 26 26 26 27 27 27 27 28 28 29 29 30 30 31 31 32 32 33 33 33 34 34 35 35 36 36 36 36 37 37 38 38 38
20 20 19 19 20 20 20 21 21 21 22 23 23 23 24 24 25 25 25 26 26 27 27 27 28 28 29 29 30 30 31 32 32 32 33 33 34 34 34 35 35 36 36 37 37 37 37 38 38 38 38 39
20 20 20 20 20 20 21 21 22 22 23 23 24 24 24 25 25 25 26 26 27 27 28 28 29 29 30 31 31 32 32 33 33 34 34 35 35 35 36 36 36 37 37 38 38 38 39 39 39 39 40 40
21 20 20 21 21 21 21 22 22 23 23 23 24 24 25 25 25 26 26 27 27 28 29 29 30 31 31 32 32 33 33 34 35 35 36 36 36 37 37 38 38 38 39 39 39 39 40 40 41 41 41 41
21 21 21 21 21 22 22 22 23 23 24 24 24 25 25 26 26 27 27 28 29 29 30 30 31 32 32 33 33 34 34 35 36 36 37 37 38 38 39 39 39 40 40 40 40 41 41 41 41 42 42 42
21 21 22 22 22 22 23 23 23 24 24 25 25 25 26 26 27 28 28 29 30 30 31 31 32 33 33 34 35 35 36 36 37 37 38 38 39 39 40 40 40 41 41 41 42 42 42 42 42 42 43 43
22 22 22 22 22 23 23 24 24 24 25 25 26 26 27 27 28 29 29 30 31 31 32 32 33 34 34 35 36 36 37 37 38 38 39 39 40 40 41 41 41 42 42 42 42 43 43 43 43 44 44 44
22 22 22 23 23 24 24 24 25 25 26 26 26 27 28 28 29 30 30 31 32 32 33 34 34 35 35 36 37 37 38 38 39 39 39 40 40 41 41 42 42 42 43 43 43 43 44 44 44 45 45 45
23 23 23 24 24 25 25 25 26 26 27 27 28 28 29 29 30 31 31 32 32 33 34 34 35 36 36 36 37 38 38 39 39 40 40 40 41 41 42 42 43 43 43 43 44 44 44 45 45 45 46 46
24 24 24 25 25 26 26 26 27 27 28 28 29 30 30 31 31 32 32 33 33 34 34 35 35 36 36 37 38 38 39 39 40 40 40 41 41 42 42 43 43 43 44 44 44 45 45 46 46 46 46 46
25 26 26 26 26 26 27 27 28 28 29 30 30 31 31 32 32 32 33 33 34 34 35 35 36 36 37 38 38 39 39 40 40 41 41 42 42 42 43 43 43 44 44 44 44 45 45 46 46 46 46 46
27 27 27 27 27 27 28 28 29 29 30 31 31 32 32 32 33 33 34 34 34 35 35 36 36 37 38 38 39 39 40 40 41 41 42 42 42 43 43 43 43 43 43 44 44 44 45 45 45 46 46 46
28 28 28 28 28 29 29 29 30 31 31 32 32 32 33 33 33 34 34 34 35 35 36 37 37 38 39 39 40 40 41 41 41 42 42 42 42 42 42 43 43 43 43 43 43 44 44 44 44 44 44 44
29 29 29 29 29 30 30 31 31 32 32 32 33 33 33 33 34 34 34 35 35 36 37 37 38 39 39 40 40 41 41 41 41 41 42 42 42 42 42 42 42 43 43 43 43 43 43 43 44 44 43 43
30 30 30 30 31 31 31 32 32 32 33 33 33 33 34 34 34 34 35 35 36 37 37 38 39 39 40 40 41 41 41 41 41 41 41 42 42 42 42 42 42 42 43 43 43 43 43 43 43 43 43 43
31 31 32 32 32 32 32 33 33 33 33 33 34 34 34 34 35 35 35 36 36 37 38 38 39 40 40 40 41 41 41 42 42 41 41 41 42 42 42 42 43 43 43 43 43 43 43 43 43 42 42 42
33 33 33 33 33 33 33 34 34 34 34 34 34 34 35 35 35 36 36 37 37 37 38 39 39 40 40 41 41 41 41 42 42 42 42 42 42 42 42 43 43 43 43 43 43 43 43 42 42 42 41 41
33 34 34 34 34 34 34 35 35 35 35 35 35 35 35 36 36 36 37 37 37 38 38 39 39 40 40 41 41 41 41 42 42 42 42 42 43 43 43 43 43 44 44 44 44 43 43 42 42 42 41 40
34 34 35 35 35 35 35 35 35 35 36 36 36 36 36 36 37 37 37 38 38 38 39 39 40 40 40 41 41 41 41 42 42 42 42 43 43 43 43 43 43 44 44 45 44 43 43 42 42 41 39 39
35 35 35 36 36 36 36 36 36 36 36 36 37 37 37 37 38 38 38 38 38 39 39 40 40 40 41 41 41 41 41 42 42 42 43 43 43 43 43 44 43 44 45 44 44 44 43 42 42 41 39 39
36 36 36 36 36 36 37 37 37 37 37 37 38 38 38 38 39 39 39 39 39 39 40 40 40 41 41 41 41 41 42 42 42 43 43 43 43 44 44 44 44 44 44 44 44 45 44 43 42 41 40 39
37 37 38 38 38 37 38 38 38 38 38 38 38 39 39 39 39 40 40 40 40 40 40 41 41 41 41 41 41 42 42 42 43 43 43 43 44 44 44 44 44 44 44 44 45 44 44 44 43 42 40 40
38 39 39 39 39 39 39 39 39 39 39 39 39 39 40 40 40 41 41 41 41 41 41 41 41 42 42 42 42 42 43 43 43 44 44 44 44 44 45 45 45 44 44 44 45 44 44 44 43 43 42 45
39 40 40 40 40 40 40 40 40 40 40 40 40 40 40 41 41 42 42 42 42 42 42 42 42 42 43 43 43 43 43 44 44 44 44 45 45 45 45 45 45 45 45 45 44 44 44 43 43 44 46 48
40 41 41 41 41 41 41 41 41 41 41 41 41 41 41 42 42 43 43 43 44 44 44 44 44 44 44 44 44 44 44 44 45 45 45 45 46 46 46 46 46 46 46 46 45 45 45 45 45 46 47 47
41 42 42 42 42 42 42 42 43 43 43 43 43 43 43 43 44 44 44 45 45 45 45 45 45 45 45 45 45 45 45 46 46 46 46 46 46 47 47 47 47 47 47 47 47 46 46 47 47 47 47 46
Wind_Direction
277 279 281 283 284 285 286 287 289 290 291 292 293 294 296 296 297 298 298 299 299 299 300 300 300 300 300 299 299 299 298 298 297 296 296 295 294 293 292 291 291 290 289 289 288 288 287 286 286 286 284 283
277 279 280 282 283 284 286 287 289 290 292 293 294 295 296 297 297 298 298 299 299 300 300 300 300 300 300 300 300 300 299 299 298 297 297 296 295 294 293 292 291 290 290 289 288 288 287 286 286 285 284 283
277 279 279 281 282 284 286 288 289 290 292 293 294 295 296 297 297 298 298 299 299 300 300 300 300 301 301 301 301 300 300 299 299 298 298 297 296 295 294 293 292 291 291 290 289 288 287 287 286 285 284 283
277 278 279 280 282 284 286 288 289 290 292 293 294 295 296 297 297 298 298 298 299 299 299 300 300 300 300 301 301 300 300 300 300 299 298 298 297 296 295 294 293 292 292 291 290 289 288 287 286 285 284 284
276 277 279 281 282 284 286 288 289 291 292 293 294 295 296 297 297 297 298 298 298 299 299 300 300 301 301 301 301 301 300 300 300 299 299 298 297 297 296 295 294 293 292 292 291 290 289 288 287 286 285 284
274 276 278 280 282 284 286 288 290 291 292 293 294 295 296 296 297 297 297 298 298 299 299 300 301 301 301 301 301 301 301 301 300 300 299 299 298 297 296 295 294 293 293 292 292 291 290 289 288 287 286 285
274 276 278 280 282 284 285 287 289 291 292 293 294 295 296 296 296 297 297 298 298 299 299 300 300 301 301 301 301 301 301 301 300 300 300 299 298 297 297 296 295 294 293 293 292 292 291 289 289 288 286 285
274 276 277 279 281 283 285 287 289 290 292 293 294 295 295 296 296 297 297 298 298 299 299 300 300 301 301 301 301 301 301 301 300 300 300 299 299 298 297 296 296 295 294 293 293 292 291 290 289 288 287 286
273 275 277 279 280 282 284 286 288 290 291 293 294 295 295 296 296 297 297 298 298 299 299 300 300 301 301 301 301 301 301 301 300 300 300 299 299 298 298 297 296 295 294 294 293 292 291 290 289 288 287 286
273 274 277 278 280 282 284 286 288 290 291 293 294 294 295 295 296 296 297 297 298 298 299 299 300 301 301 301 301 301 301 301 301 300 300 300 299 299 298 297 297 296 295 294 293 292 291 291 290 289 288 287
272 274 277 279 281 283 284 286 288 289 291 292 293 294 295 295 295 295 296 296 297 298 299 299 300 300 301 301 301 301 301 301 301 300 300 300 299 299 298 298 297 296 296 295 294 293 292 291 290 289 288 287
273 275 277 279 281 283 284 286 287 289 290 291 293 294 294 295 295 295 296 296 297 298 298 299 299 300 301 301 301 301 301 301 301 301 300 300 300 299 299 298 298 297 296 295 294 293 292 291 290 289 288 287
273 275 277 279 281 282 284 285 287 288 290 291 292 294 294 295 295 296 296 296 297 298 298 299 299 300 301 301 301 302 302 302 301 301 301 300 300 299 299 298 298 297 296 296 295 294 293 292 291 289 288 287
273 275 277 279 281 282 284 285 287 288 290 291 293 294 294 295 296 296 296 297 297 298 298 299 299 300 300 301 301 301 301 301 301 301 300 300 299 299 299 298 298 297 296 296 295 294 293 292 291 290 288 287
272 275 277 279 281 282 284 285 286 288 290 291 293 294 295 295 296 296 297 297 297 298 298 299 299 299 300 300 301 301 301 301 301 300 300 300 299 299 298 298 297 297 296 296 295 295 294 293 292 290 289 288
273 275 277 279 281 283 284 286 287 288 290 291 293 294 294 295 296 296 297 297 297 298 298 298 299 299 299 299 300 300 300 300 300 300 300 300 299 299 298 298 297 297 296 296 296 295 294 293 292 291 290 288
273 275 277 279 281 283 285 286 287 289 290 291 292 293 294 295 296 296 297 297 297 298 298 298 298 298 299 299 299 300 300 300 300 300 300 299 299 299 298 298 297 297 297 296 296 295 295 294 293 292 290 289
273 275 276 278 281 283 285 286 288 289 290 291 292 293 294 295 295 296 297 297 297 298 298 298 298 298 299 299 299 299 300 300 300 300 299 299 299 299 298 298 298 297 297 297 296 296 295 294 293 292 290 289
273 275 276 278 280 282 284 286 287 289 289 291 291 292 293 294 295 295 296 297 297 298 298 298 299 299 299 299 299 299 299 299 299 299 299 299 298 298 298 298 298 297 297 297 297 296 296 295 294 292 291 289
273 275 276 278 280 282 284 285 287 288 289 290 290 291 292 293 294 295 295 296 297 298 298 299 299 299 299 299 299 300 299 299 299 299 298 298 298 298 297 297 298 297 297 297 297 296 296 295 294 293 291 290
274 275 276 278 280 281 283 284 286 287 288 288 289 290 291 292 293 294 295 296 297 298 298 299 299 299 299 299 299 299 299 299 299 298 298 298 298 297 297 297 297 297 297 297 297 296 295 295 294 293 291 290
274 275 277 278 280 281 283 284 284 285 286 287 288 289 290 291 292 294 295 296 297 297 298 299 299 299 299 299 299 299 299 298 298 298 297 297 297 297 297 297 297 297 297 297 296 295 295 295 294 293 292 290
274 275 277 278 280 281 282 283 284 284 285 286 287 288 289 291 292 293 294 296 296 297 298 299 299 299 299 299 299 299 299 298 298 298 297 297 297 297 297 297 297 297 296 296 295 294 294 294 294 293 292 290
273 275 277 278 280 281 282 283 283 284 285 286 287 288 289 290 291 293 294 295 296 297 298 299 299 299 299 299 299 299 298 298 298 297 297 297 296 296 296 296 297 297 297 296 294 294 294 293 293 293 291 289
273 274 276 278 279 280 281 282 283 284 284 285 286 287 288 289 290 292 293 294 295 296 297 298 299 299 299 299 299 299 298 298 298 297 297 297 296 296 296 296 296 297 297 296 295 294 293 293 292 291 290 289
273 274 276 277 279 280 281 282 283 284 285 285 286 286 287 288 289 290 292 293 294 295 296 297 298 299 299 299 299 298 298 298 298 297 297 297 296 296 296 296 296 296 296 295 295 294 292 291 291 290 288 287
273 274 276 277 279 280 281 282 282 283 284 285 285 286 286 287 288 290 291 292 293 294 295 296 297 298 298 298 298 298 298 298 298 297 297 297 296 296 296 295 295 296 296 295 294 293 291 291 290 288 286 286
273 274 276 277 278 280 280 281 282 283 284 284 285 286 286 287 288 289 290 291 292 293 294 294 295 296 297 297 297 298 298 298 297 297 297 296 296 296 296 295 295 295 295 294 294 292 291 290 289 287 285 288
273 274 276 277 278 279 279 280 281 282 283 283 284 285 286 287 287 288 289 290 290 291 292 293 294 295 296 296 297 297 297 297 297 297 297 296 296 295 295 295 294 294 293 293 292 291 290 289 287 286 287 289
272 274 275 276 277 278 278 279 280 281 282 283 283 285 286 287 287 287 288 288 289 290 290 291 292 293 294 295 296 296 297 297 297 297 297 296 296 295 295 294 293 293 292 292 291 290 288 287 286 286 288 288
272 273 274 275 276 276 277 278 280 281 281 282 283 284 285 286 286 287 287 288 288 288 289 290 290 291 293 294 294 295 296 296 297 297 296 296 295 295 294 293 293 292 292 291 290 289 288 286 285 286 286 286